CZ-4C DEB, 43265

Orbit data source: Space-Track

CZ-4C DEB, 43265 is space debris in SSO originally from a launch on Sat, 31 Mar 2018 UTC launched from the Taiyaun Space Center, China (TSC). Debris objects in space refer to the collection of defunct objects orbiting the Earth. Examples of debris include non-operational satellites, rocket bodies, and fragments generated from explosions, collisions, or faulty payload assembly.

Loading next visibility...
Identifier
43265, 2018-031G
Orbit
SSO
Country
Flag of CNCN / PRC
Related business
Manufacturer
Unknown
Mission
Spacecraft
Bus & Motor
Unknown
Mass
Unknown
Launch date (UTC)
2018-03-31 (8 years ago)
Launch vehicle
Unknown
Launch site
Taiyaun Space Center, China (TSC)
Object type
Payload
Rocket body
Debris
Shape & HBR
Unknown shape, 2.1 m
Radar Cross Section
Large (>1 m²)

Expand to show TLE details & history
Last TLE update: 9 hours ago

TLE from 9 hours ago
0 CZ-4C DEB
1 43265U 18031G   25298.50422002  .00013408  00000-0  11126-2 0  9993
2 43265  97.7980  16.9003 0002054 302.0529  58.0494 14.98911053409221
Epoch: 2025-10-25T12:06Z
TLE epoch observation values (Epoch: 2025-10-25T12:06:04.609Z)
Latitude
-0.00003°
Longitude
161.24728°
Altitude
572.555 km
Speed
7.575 km/s
True Right ascension
01h 07m 36s
True Declination
0° 00' 00"
Sunlit
Object was in full shadow at epoch
Visualization orbit readout
Latitude
Unknown
Longitude
Unknown
Altitude
Unknown
Speed
Unknown
Apparent Right ascension
Unknown
Apparent Declination
Unknown
Sunlit
N/A
Visualization observer readout
Local Sidereal Time
16:17:19
Azimuth
Unknown
Elevation
Unknown
Doppler factor
Unknown
Orbital elements
Apogee altitude
568.697 km
Perigee altitude
565.844 km
Semi-major axis
6,945.408 km
Eccentricity
0.00021
Inclination
97.798°
RAAN
16.9003°
Arg. of periapsis
302.0529°
True anomaly
58.06937°
Mean anomaly
58.0494°
Eccentric anomaly
58.05939°
Mean motion
3.7497 °/min
Orbital period
96.01 mins
BSTAR
0.0011126
Loading maneuver chart data...
Computing Atmospheric mass density...
Loading historical data...
Loading historical data...
Loading historical data...
Loading historical data...
Loading historical data...
Loading historical data...
Loading historical data...

Documentation

Showing up to 5 results
|